Flag for Finland Weather past 2 weeks in Rovaniemi, Finland

Now
21 °F

Light snow. Low clouds.


Feels Like: 16 °F
Forecast: 18 / 22 °F
Wind: 3 mph from Southwest

Location: Rovaniemi Airport

Current Time: Dec 18, 2014 at 7:27:06 PM

Latest Report: Dec 18, 2014 at 6:50 PM


Visibility: 1 mi

Pressure: 29.27 "Hg

Humidity: 93%

Dew point: 19 °F

Location of RovaniemiLocation

Historic Weather in Rovaniemi — Graph

°F

Rovaniemi temperature yesterday

Maximum temperature yesterday: 30 °F (at 12:20 AM)
Minimum temperature yesterday: 18 °F (at 9:50 PM)
Average temperature yesterday: 27 °F

Past Weeks' High & Low Weather Summary

 TemperatureHumidityPressure
High36 °F (Dec 8, 6:20 AM)100% (Dec 3, 6:20 PM)29.92 "Hg (Dec 3, 6:20 PM)
Low18 °F (Dec 17, 9:50 PM)87% (Dec 10, 9:50 AM)29.09 "Hg (Dec 13, 4:50 AM)
Average29 °F99%29.37 "Hg
* Reported Dec 3 6:20 PM — Dec 18 6:20 PM, Rovaniemi, Weather by CustomWeather, © 2014

Note: Actual official high and low records may vary slightly from our data, if they occured in-between our weather recording intervals... More about our weather records

Advertising

Rovaniemi weather history for previous 24 hours

 ConditionsComfort  
Time TempWeatherWind HumidityBarometerVisibility
6:20 PM
Dec 18
19 °FIce fog.2 mph100%29.27 "Hg2 mi
5:20 PM19 °FSnow flurries. Mostly cloudy.6 mph100%29.27 "HgN/A
4:50 PM19 °FLight snow. Mostly cloudy.8 mph100%29.30 "HgN/A
4:20 PM19 °FLight snow. Mostly cloudy.6 mph100%29.27 "HgN/A
3:50 PM19 °FLight snow. Low clouds.2 mph100%29.27 "HgN/A
3:20 PM19 °FLight snow. Mostly cloudy.3 mph100%29.27 "HgN/A
2:50 PM19 °FPartly cloudy.6 mph100%29.27 "HgN/A
2:20 PM19 °FPassing clouds.3 mph100%29.27 "HgN/A
1:50 PM19 °FPassing clouds.3 mph100%29.27 "HgN/A
1:20 PM19 °FPassing clouds.7 mph93%29.30 "HgN/A
12:50 PM19 °FPartly sunny.2 mph100%29.27 "HgN/A
12:20 PM19 °FBroken clouds.2 mph100%29.27 "HgN/A
11:50 AM18 °FBroken clouds.2 mph100%29.27 "HgN/A
11:20 AM18 °FBroken clouds.8 mph100%29.27 "HgN/A
10:50 AM18 °FPassing clouds.5 mph100%29.27 "HgN/A
10:20 AM19 °FPassing clouds.3 mph93%29.27 "HgN/A
9:50 AM19 °FPassing clouds.3 mph100%29.27 "HgN/A
9:20 AM19 °FPassing clouds.7 mph100%29.27 "HgN/A
8:50 AM21 °FPassing clouds.7 mph93%29.27 "HgN/A
8:20 AM21 °FPassing clouds.3 mph93%29.27 "HgN/A
7:50 AM21 °FPassing clouds.5 mph93%29.27 "HgN/A
7:20 AM21 °FPassing clouds.6 mph93%29.27 "HgN/A
6:50 AM21 °FMostly cloudy.7 mph100%29.27 "HgN/A
6:20 AM21 °FMostly cloudy.6 mph100%29.27 "HgN/A
5:20 AM21 °FSnow flurries. Mostly cloudy.5 mph100%29.27 "HgN/A
4:50 AM21 °FSnow flurries. Passing clouds.8 mph100%29.27 "HgN/A
4:20 AM23 °FSnow flurries. Overcast.6 mph100%29.27 "HgN/A
3:50 AM23 °FLight snow. Mostly cloudy.5 mph100%29.27 "HgN/A
3:20 AM23 °FLight snow. Partly cloudy.6 mph93%29.27 "HgN/A
2:50 AM21 °FLight snow. Mostly cloudy.7 mph100%29.27 "Hg4 mi
2:20 AM21 °FLight snow. Passing clouds.8 mph100%29.27 "Hg4 mi
1:50 AM21 °FSnow flurries. Partly cloudy.8 mph100%29.27 "Hg5 mi
1:20 AM21 °FOvercast.7 mph100%29.27 "HgN/A
12:50 AM21 °FIce fog.3 mph100%29.30 "Hg3 mi
12:20 AM21 °FIce fog.5 mph100%29.30 "Hg1 mi
11:50 PM
Dec 17
21 °FIce fog.2 mph100%29.30 "Hg0 mi
11:20 PM21 °FIce fog.5 mph93%29.30 "Hg0 mi
10:50 PM19 °FIce fog.7 mph100%29.27 "Hg0 mi
10:20 PM19 °FIce fog.6 mph93%29.30 "Hg0 mi
9:50 PM18 °FIce fog.3 mph100%29.30 "Hg0 mi
9:20 PM19 °FIce fog.9 mph93%29.30 "Hg1 mi
8:50 PM19 °FPassing clouds.10 mph100%29.30 "HgN/A
8:20 PM21 °FPassing clouds.7 mph100%29.27 "HgN/A
7:50 PM23 °FPassing clouds.6 mph100%29.30 "HgN/A
7:20 PM27 °FOvercast.6 mph100%29.30 "HgN/A
Weather by CustomWeather, © 2014

See weather overviewHow to use our weather pages